date,batt_volt,AirTemp_C,Solar_kW,RH,Manual_BP,StationID,WS_ms,PTemp,WS_15min_max,Prog_Sig,Solar_Raw,Bar_mbar,Solar_MJ,Max_WS_2min,Pressure_Raw,Rain_mm,WD_15min_ave,Max_AirTemp_1min,WindDir,WS_15min_med,WS_15min_ave,Elevation_Correction
2019-02-01T00:07:00Z,13.58526,-10.30242,0.0,53.6867,0,1156,20.4428,-7.973122,22.1088,43690,0.0,1015.032,0.0,19.87,1013.231,0,284.381676939,-10.13,289.7175,17.787,17.81885,1.80078
2019-02-01T00:21:59Z,13.59633,-10.64221,0.0,52.56539,0,1156,13.6024,-8.016045,20.4428,43690,0.0,1015.032,0.0,18.15,1013.231,0,290.545445718,-10.57,288.9696,14.9646,15.18895,1.80078
2019-02-01T00:37:00Z,13.59079,-10.26844,0.0,58.036,0,1156,11.662,-8.106414,23.7552,43690,0.0,1015.032,0.0,19.82,1013.231,0,287.376892645,-10.06,292.3713,15.1018,14.95795,1.80078
2019-02-01T00:52:00Z,13.59633,-10.43834,0.0,54.1624,0,1156,12.9164,-8.1516,17.934,43690,0.0,1015.032,0.0,17.93,1013.231,0,293.275085982,-10.34,292.1541,13.0928,13.1804166429,1.80078
2019-02-01T01:07:00Z,13.59633,-10.64221,0.0,50.56064,0,1156,16.1504,-8.262306,16.9344,43690,0.0,1015.603,0.0,15.13,1013.802,0,294.04613759,-10.27,284.5789,12.691,12.6621832857,1.80078
2019-02-01T01:22:05Z,13.59633,-10.47232,0.0,54.84198,0,1156,15.876,-8.352676,17.3068,43690,0.0,1015.603,0.0,16.82,1013.802,0,292.2175312,-10.3,292.2265,12.8576,12.6566129882,1.80078
2019-02-01T01:37:04Z,13.57972,-10.26844,0.0,57.15254,0,1156,15.6996,-8.262306,19.0708,43690,0.0,1015.603,0.0,18.17,1013.802,0,290.173520798,-10.03,287.5463,14.2982,14.1779166488,1.80078
2019-02-01T01:52:03Z,13.58526,-10.16651,0.0,58.54568,0,1156,15.5624,-8.106414,19.3844,43690,0.0,1015.603,0.0,19.6,1013.802,0,288.474670098,-10.03,284.024,15.0332,15.114750006,1.80078
2019-02-01T02:07:02Z,13.57972,-10.43834,0.0,54.06046,0,1156,13.8572,-8.038639,18.0516,43690,0.0,1017.234,0.0,16.74,1015.433,0,293.476209633,-10.27,293.4086,12.936,12.8777832976,1.80078
2019-02-01T02:22:06Z,13.57972,-10.3364,0.0,57.8661,0,1156,13.9748,-8.038639,18.816,43690,0.0,1017.234,0.0,18.82,1015.433,0,294.06310759,-10.34,307.9802,13.2496,13.1631976036,1.80078
2019-02-01T02:37:05Z,13.57972,-9.996613,0.0,62.24938,0,1156,21.5992,-7.927937,21.5992,43690,0.0,1017.234,0.0,15.84,1015.433,0,292.12481438,-10.17,287.2085,12.7204,12.5700166548,1.80078
2019-02-01T02:52:04Z,13.57972,-10.30242,0.0,60.48248,0,1156,14.2688,-7.882751,22.246,43690,0.0,1017.234,0.0,17.05,1015.433,0,288.03529477,-10.37,288.463,16.17,15.99955,1.80078
2019-02-01T03:07:08Z,13.58526,-10.16651,0.0,58.81751,0,1156,16.6012,-7.882751,21.2464,43690,0.0,1016.826,0.0,18.68,1015.025,0,286.968139451,-10.34,278.234,15.7976,15.6298982249,1.80078
2019-02-01T03:22:07Z,13.59633,-10.47232,0.0,59.93882,0,1156,17.1108,-7.993454,20.776,43690,0.0,1016.826,0.0,17.99,1015.025,0,289.03954398,-10.51,281.5874,14.9058,14.9147833333,1.80078
2019-02-01T03:37:07Z,13.59079,-11.28781,0.0,52.19162,0,1156,5.0568,-8.106414,18.6984,43690,0.0,1016.826,0.0,12.68,1015.025,0,291.639723218,-11.19,303.3481,11.956,11.828366619,1.80078
2019-02-01T03:52:05Z,13.60186,-10.94802,0.0,59.63301,0,1156,12.152,-8.397862,16.6796,43690,0.0,1016.826,0.0,14.62,1015.025,0,292.541469549,-11.25,287.0396,12.0932,11.7388832619,1.80078
2019-02-01T04:07:04Z,13.60206,-10.94636,0.0,57.56359,0,1156,9.5452,-8.443042,19.1688,43690,0.0,1018.397,0.0,15.58,1016.596,0,291.802234286,-10.95,278.8531,12.789,12.841266631,1.80078
2019-02-01T04:22:09Z,13.59721,-11.08277,0.0,58.92182,0,1156,13.328,-8.48597,17.6792,43690,0.0,1018.397,0.0,16.5,1016.596,0,294.137270816,-11.08,281.0921,12.6028,12.6229798402,1.80078
2019-02-01T04:37:07Z,13.60356,-11.31861,0.0,56.7511,0,1156,13.1712,-8.553749,17.4048,43690,0.0,1018.397,0.0,16.37,1016.596,0,288.239270267,-11.08,294.8647,13.2692,13.2381666667,1.80078
2019-02-01T04:52:05Z,13.60324,-11.31799,0.0,59.74287,0,1156,11.5444,-8.57634,16.562,43690,0.0,1018.397,0.0,13.64,1016.596,0,291.117993228,-11.18,286.6917,11.809,11.660716625,1.80078
2019-02-01T05:07:10Z,13.60932,-11.48727,0.0,56.27782,0,1156,17.8164,-8.66671,20.7956,43690,0.0,1018.284,0.0,19.11,1016.483,0,288.864355597,-11.56,278.2289,14.0336,14.1943021775,1.80078
2019-02-01T05:22:08Z,13.61523,-12.0306,0.0,53.18605,0,1156,14.1708,-8.870045,20.4036,43690,0.0,1018.284,0.0,16.78,1016.483,0,290.535430923,-11.79,298.598,13.72,13.8947666607,1.80078
2019-02-01T05:37:07Z,13.61554,-12.02996,0.0,52.6095,0,1156,12.9948,-9.073376,17.052,43690,0.0,1018.284,0.0,15.43,1016.483,0,292.961679007,-11.96,298.0257,12.4656,12.2722832679,1.80078
2019-02-01T05:52:10Z,13.62267,-11.75535,0.0,56.35334,0,1156,16.758,-9.254116,18.4632,43690,0.0,1018.284,0.0,17.89,1016.483,0,290.95427839,-11.48,288.3775,11.4072,11.5841798107,1.80078
2019-02-01T06:07:08Z,13.62816,-12.19584,0.0,49.49005,0,1156,9.819599,-9.434857,19.4432,43690,0.0,1018.953,0.0,11.37,1017.152,0,294.729737417,-12.06,313.9005,10.3488,10.6411665476,1.80078
2019-02-01T06:22:11Z,13.62862,-11.68593,0.0,54.9966,0,1156,7.9772,-9.550079,19.4628,43690,0.0,1018.953,0.0,11.25,1017.152,0,294.654049727,-11.55,282.8899,10.7604,10.9085017041,1.80078
2019-02-01T06:37:10Z,13.63417,-11.65194,0.0,52.03943,0,1156,4.9196,-9.595261,17.8948,43690,0.0,1018.953,0.0,14.62,1017.152,0,291.678336168,-11.45,293.3637,12.8086,12.1438332917,1.80078
2019-02-01T06:52:13Z,13.62863,-11.82189,0.0,50.95174,0,1156,7.114799,-9.617855,17.1304,43690,0.0,1018.953,0.0,10.62,1017.152,0,292.870871873,-11.65,310.0398,10.1528,10.4963218343,1.80078
2019-02-01T07:07:11Z,13.62863,-11.82189,0.0,47.75663,0,1156,7.859599,-9.640446,17.0324,43690,0.0,1017.654,0.0,10.68,1015.853,0,299.240836391,-11.72,279.8973,8.7024,8.762249875,1.80078
2019-02-01T07:22:09Z,13.64524,-11.99184,0.0,47.04283,0,1156,2.1952,-9.708226,10.9368,43690,0.0,1017.654,0.0,8.189999,1015.853,0,308.609089653,-11.86,269.1822,7.3597995,7.06194982738,1.80078
2019-02-01T07:37:13Z,13.63417,-11.7879,0.0,45.0034,0,1156,9.9176,-9.68563,11.6816,43690,0.0,1017.654,0.0,9.979999,1015.853,0,306.926247889,-11.72,311.9946,6.5464,6.50534426036,1.80078
2019-02-01T07:52:11Z,13.62309,-11.54997,0.0,50.03399,0,1156,6.781599,-9.502632,11.0936,43690,0.0,1017.654,0.0,8.57,1015.853,0,301.598777312,-11.48,328.2845,6.7522,6.68954986905,1.80078
2019-02-01T08:07:14Z,13.62309,-11.44799,0.0,51.32563,0,1156,9.368799,-9.299301,11.466,43690,0.0,1017.98,0.0,7.918,1016.18,0,304.213397091,-11.41,312.8392,5.9976,6.24660109467,1.80078
2019-02-01T08:22:11Z,13.62306,-11.24469,0.0,49.21712,0,1156,13.1712,-9.095966,13.132,43690,0.0,1017.98,0.0,13.13,1016.18,0,299.774145005,-11.14,285.876,7.565599,7.51356653571,1.80078
2019-02-01T08:37:14Z,13.62168,-11.3489,0.0,48.29564,0,1156,4.2336,-8.91523,15.582,43690,0.0,1017.98,0.0,7.036,1016.18,0,298.945280457,-11.35,304.5069,6.6444,7.62068869822,1.80078
2019-02-01T08:52:12Z,13.6153,-11.01099,0.0,52.30257,0,1156,7.2324,-8.82486,12.054,43690,0.0,1017.98,0.0,10.58,1016.18,0,300.083843572,-10.98,301.0357,7.2324,7.12798320238,1.80078
2019-02-01T09:07:15Z,13.60971,-10.94356,0.0,51.11214,0,1156,8.486799,-8.689304,12.7008,43690,0.0,1017.485,0.0,12.7,1015.684,0,299.986326568,-10.74,298.2071,8.486799,8.46140097633,1.80078
2019-02-01T09:22:13Z,13.60418,-10.73953,0.0,49.27722,0,1156,8.1732,-8.553749,16.6012,43690,0.0,1017.485,0.0,14.21,1015.684,0,295.739290881,-10.67,296.1815,8.9277995,9.27558322024,1.80078
2019-02-01T09:37:16Z,13.60845,-10.67316,0.0,50.83773,0,1156,14.21,-8.463379,17.8164,43690,0.0,1017.485,0.0,14.72,1015.684,0,293.883147744,-10.64,279.807,11.6032,11.5490390296,1.80078
2019-02-01T09:52:14Z,13.60754,-10.67411,0.0,49.54478,0,1156,11.1328,-8.463379,16.9932,43690,0.0,1017.485,0.0,16.23,1015.684,0,291.27177152,-10.61,265.3701,12.7694,12.731716631,1.80078
2019-02-01T10:07:17Z,13.6077,-10.84411,0.0,50.69998,0,1156,8.859199,-8.420452,16.4052,43690,0.0,1017.989,0.0,14.03,1016.188,0,292.60828533,-10.67,292.0774,11.5836,11.1179549467,1.80078
2019-02-01T10:22:15Z,13.60195,-10.54012,0.0,49.7454,0,1156,14.7588,-8.307491,17.1696,43690,0.0,1017.989,0.0,17.17,1016.188,0,288.478756645,-10.27,297.222,13.1124,13.0142833155,1.80078
2019-02-01T10:37:17Z,13.6074,-10.94799,0.0,47.02688,0,1156,13.3476,-8.375267,19.1884,43690,0.0,1017.989,0.0,17.19,1016.188,0,290.92746996,-10.95,288.7528,13.4456,13.4756378521,1.80078
2019-02-01T10:52:15Z,13.61917,-11.42152,0.0,44.20999,0,1156,7.0756,-8.711895,15.6212,43690,0.0,1017.989,0.0,9.559999,1016.188,0,296.025791783,-11.39,326.1474,9.8195995,9.8191332381,1.80078
2019-02-01T11:07:18Z,13.63179,-11.82677,0.0,46.89875,0,1156,5.4488,-9.02819,11.5444,43690,0.0,1018.208,0.0,9.51,1016.408,0,305.765225299,-11.62,311.5544,6.6052,6.7624637929,1.80078
2019-02-01T11:22:16Z,13.62196,-11.17845,0.0009668924,54.44826,0,1156,8.3496,-9.208931,12.6812,43690,0.06768246,1018.208,4.834462e-06,9.29,1016.408,0,298.456830004,-11.18,293.9186,7.6439995,7.61786655357,1.80078
2019-02-01T11:37:14Z,13.61197,-11.51674,0.003867472,54.17938,0,1156,4.8804,-9.163746,12.0344,43690,0.270723,1018.208,1.933736e-05,9.33,1016.408,0,303.152623296,-11.41,304.5051,6.3112,6.35378324405,1.80078
2019-02-01T11:52:18Z,13.62274,-11.24509,0.006284841,55.36851,0,1156,6.0368,-9.186337,10.6232,43690,0.4399389,1018.208,3.142421e-05,9.9,1016.408,0,304.475458148,-11.21,294.6563,6.664,6.74286378107,1.80078
2019-02-01T12:07:16Z,13.61018,-10.94014,0.01111845,67.16058,0,1156,7.6048,-8.983006,15.3076,43690,0.7782916,1018.189,5.559226e-05,15.31,1016.388,0,297.09333997,-10.7,278.213,6.4777995,6.95204989881,1.80078
2019-02-01T12:22:20Z,13.5987,-10.84097,0.02368689,67.96978,0,1156,10.3096,-8.644119,14.5236,43690,1.658082,1018.189,0.0001184344,12.74,1016.388,0,293.502876919,-10.91,299.1547,9.741199,9.70640697633,1.80078
2019-02-01T12:37:17Z,13.5927,-10.70615,0.03432133,66.30198,0,1156,5.9976,-8.463379,15.3076,43690,2.402493,1018.189,0.0001716067,12.98,1016.388,0,292.814846897,-10.6,297.4784,9.721599,9.86638319643,1.80078
2019-02-01T12:52:16Z,13.57985,-10.67566,0.04785622,68.53672,0,1156,12.8576,-8.239712,14.0336,43690,3.349935,1018.189,0.0002392811,14.03,1016.388,0,291.462945889,-10.54,290.157,9.9861995,9.88119988095,1.80078
2019-02-01T13:07:20Z,13.5742,-10.84606,0.06332489,66.80262,0,1156,8.682799,-8.038639,14.8372,43690,4.432742,1018.704,0.0003166245,11.78,1016.903,0,292.519979703,-10.64,283.3488,9.9176,9.89568030769,1.80078
2019-02-01T13:22:19Z,13.5742,-10.26842,0.08942828,68.2637,0,1156,11.1132,-7.882751,13.6808,43690,6.25998,1018.704,0.0004471414,10.7,1016.903,0,294.386030728,-10.2,308.2458,9.5745995,9.54006649405,1.80078
2019-02-01T13:37:16Z,13.5742,-10.64219,0.09087847,60.00682,0,1156,7.1932,-7.659084,13.9944,43690,6.361493,1018.704,0.0004543924,13.82,1016.903,0,295.093643785,-10.54,308.101,9.8097995,9.8444498631,1.80078
2019-02-01T13:52:21Z,13.56867,-10.06455,0.1479192,59.2253,0,1156,12.3872,-7.505455,15.7192,43690,10.35434,1018.704,0.000739596,11.88,1016.903,0,293.53917561,-10.1,290.4897,9.133599,9.51075488166,1.80078
2019-02-01T14:07:20Z,13.56313,-10.23444,0.1295479,58.44379,0,1156,10.7996,-7.326973,16.6208,43690,9.068353,1018.376,0.0006477394,13.15,1016.575,0,293.662782174,-10.06,305.1819,10.1626,10.2486998988,1.80078
2019-02-01T14:22:18Z,13.56313,-10.54025,0.1232513,53.55082,0,1156,11.7208,-7.281788,15.6016,43690,8.627591,1018.376,0.0006162565,12.13,1016.575,0,296.873570784,-10.47,295.363,9.898,9.84724991667,1.80078
2019-02-01T14:37:18Z,13.56313,-9.622822,0.4277459,51.95381,0,1156,15.974,-7.21627,18.6004,43690,29.94221,1018.376,0.00213873,16.39,1016.575,0,291.018173867,-9.49,290.731,13.2888,13.2698999881,1.80078
2019-02-01T14:52:18Z,13.52835,-9.62629,0.5050638,57.14606,0,1156,14.6216,-6.707939,18.816,43690,35.35447,1018.376,0.002525319,16.23,1016.575,0,287.586918336,-9.49,297.5485,14.5138,14.5016666607,1.80078
2019-02-01T15:07:23Z,13.49805,-9.291858,0.5031232,57.95142,0,1156,16.072,-6.116016,18.2672,43690,35.21862,1019.005,0.002515616,16.78,1017.204,0,290.669079935,-9.26,285.872,13.6416,13.3762461479,1.80078
2019-02-01T15:22:23Z,13.48662,-9.259461,0.6122618,62.26233,0,1156,16.4248,-5.591869,18.2084,43690,42.85832,1019.005,0.003061309,16.56,1017.204,0,291.007143083,-9.4,289.1856,13.524,13.4492166607,1.80078
2019-02-01T15:37:21Z,13.47555,-9.293469,0.5325132,57.33698,0,1156,12.054,-5.198761,17.4832,43690,37.27592,1019.005,0.002662566,15.58,1017.204,0,292.575995923,-9.16,293.6709,12.9262,12.978349994,1.80078
2019-02-01T15:52:20Z,13.48108,-9.429338,0.1840829,65.48915,0,1156,16.3268,-5.155834,17.1304,43690,12.88581,1019.005,0.0009204146,17.13,1017.204,0,290.113009261,-9.53,279.8761,12.5048,12.4897499464,1.80078
2019-02-01T16:07:20Z,13.50321,-9.633142,0.3580627,60.49594,0,1156,13.0928,-5.286873,18.4828,43690,25.06439,1017.956,0.001790313,16.58,1016.155,0,286.74104523,-9.57,290.584,14.4158,14.311149994,1.80078
2019-02-01T16:22:20Z,13.50321,-9.463306,0.1556007,66.37231,0,1156,13.6612,-5.417908,18.7768,43690,10.89205,1017.956,0.0007780036,16.54,1016.155,0,289.317589348,-9.4,302.6183,13.5436,13.4816499702,1.80078
2019-02-01T16:37:23Z,13.50321,-8.919826,0.2367839,64.67394,0,1156,14.5236,-5.483425,18.9532,43690,16.57487,1017.956,0.001183919,15.39,1016.155,0,286.056760346,-8.75,280.3102,14.259,14.2812833333,1.80078
2019-02-01T16:52:22Z,13.49214,-9.327437,0.1541511,64.8098,0,1156,13.2692,-5.43824,17.6988,43690,10.79058,1017.956,0.0007707557,17.05,1016.155,0,286.300690458,-9.26,271.3387,13.279,13.163966619,1.80078
2019-02-01T17:07:21Z,13.50321,-9.497273,0.2116558,60.46198,0,1156,13.0928,-5.526352,17.836,43690,14.81591,1016.896,0.001058279,16.05,1015.095,0,287.95934498,-9.429999,272.9786,13.5142,13.582099994,1.80078
2019-02-01T17:22:26Z,13.51427,-9.429338,0.1594667,60.69974,0,1156,10.7408,-5.700314,18.2868,43690,11.16267,1016.896,0.0007973334,16.99,1015.095,0,286.678546329,-9.429999,292.7545,13.426,13.4449041183,1.80078
2019-02-01T17:37:24Z,13.5198,-9.361405,0.1676817,63.0435,0,1156,12.9948,-5.831352,17.0912,43690,11.73772,1016.896,0.0008384082,17.72,1015.095,0,288.329244152,-9.33,280.7443,12.2794,12.494066625,1.80078
2019-02-01T17:52:27Z,13.5198,-9.327437,0.1343386,61.54893,0,1156,12.8772,-5.831352,17.4244,43690,9.403702,1016.896,0.000671693,15.92,1015.095,0,289.117258904,-9.29,284.2895,12.936,12.9935242485,1.80078
2019-02-01T18:07:24Z,13.50874,-8.546186,0.6098393,63.51904,0,1156,14.1708,-5.765831,17.7184,43690,42.68875,1016.081,0.003049196,14.97,1014.28,0,284.980380647,-8.78,283.3489,14.0924,13.9683833333,1.80078
2019-02-01T18:22:27Z,13.49214,-8.74999,0.1377212,64.19839,0,1156,15.7192,-5.612202,18.326,43690,9.640486,1016.081,0.0006886062,17.46,1014.28,0,281.031945629,-8.78,285.1094,15.1704,15.0232260355,1.80078
2019-02-01T18:37:26Z,13.48661,-8.002706,0.1179087,59.10328,0,1156,14.5432,-5.395317,18.1496,43690,8.25361,1016.081,0.0005895435,15.92,1014.28,0,285.168261411,-7.901001,284.5065,14.6216,14.6669833274,1.80078
2019-02-01T18:52:24Z,13.47002,-7.934773,0.293772,61.20926,0,1156,14.308,-4.916355,17.738,43690,20.56404,1016.081,0.00146886,16.56,1014.28,0,281.381895765,-7.765,274.3533,14.2296,14.2076666667,1.80078
2019-02-01T19:07:28Z,13.46975,-8.343548,0.1159564,58.9992,0,1156,13.3476,-4.787578,16.7776,43690,8.116946,1015.831,0.0005797819,14.99,1014.03,0,286.159243063,-8.17,280.0828,13.2104,13.0089491065,1.80078
2019-02-01T19:22:27Z,13.46333,-8.276235,0.1198214,63.20977,0,1156,12.936,-4.722057,19.0316,43690,8.387501,1015.831,0.0005991072,15.27,1014.03,0,285.188005669,-8.309999,276.0742,13.7592,13.8768,1.80078
2019-02-01T19:37:25Z,13.46986,-8.140049,0.0995291,60.73091,0,1156,13.622,-4.787578,18.2868,43690,6.967037,1015.831,0.0004976454,16.5,1014.03,0,286.714019636,-7.868001,290.3053,13.6612,13.7368,1.80078
2019-02-01T19:52:30Z,13.47538,-8.512546,0.0541129,59.74804,0,1156,15.5428,-4.96154,18.1496,43690,3.787903,1015.831,0.0002705645,17.07,1014.03,0,285.098620531,-8.479999,277.1962,14.7588,14.7657585799,1.80078
2019-02-01T20:07:28Z,13.47554,-7.832886,0.0550803,59.10325,0,1156,13.7984,-5.024799,17.64,43690,3.855621,1015.754,0.0002754015,16.11,1013.953,0,278.929032474,-7.765,279.4177,13.7788,13.6302833333,1.80078
2019-02-01T20:22:27Z,13.48107,-7.798916,0.1633173,62.36412,0,1156,11.3092,-5.178429,17.2284,43690,11.43221,1015.754,0.0008165863,15.01,1013.953,0,279.90700854,-7.867001,278.4531,13.7592,13.7608333274,1.80078
2019-02-01T20:37:26Z,13.48107,-8.138592,0.04058738,61.00543,0,1156,13.4456,-5.198761,17.1696,43690,2.841116,1015.754,0.0002029369,16.03,1013.953,0,280.911455131,-7.935001,279.8519,13.9454,13.7672499762,1.80078
2019-02-01T20:52:31Z,13.49767,-8.002722,0.02512774,61.00543,0,1156,12.4852,-5.35239,18.9728,43690,1.758942,1015.754,0.0001256387,15.88,1013.953,0,280.556730811,-7.969,275.9932,14.2688,14.2123195207,1.80078
2019-02-01T21:07:29Z,13.5032,-7.968754,0.01063111,63.07744,0,1156,16.1896,-5.569279,17.3264,43690,0.7441778,1015.673,5.315555e-05,17.15,1013.872,0,280.5060423,-7.969,277.7296,13.4652,13.6967833333,1.80078
2019-02-01T21:22:27Z,13.5032,-7.900818,0.004349092,62.49999,0,1156,14.602,-5.700314,18.5024,43690,0.3044364,1015.673,2.174546e-05,15.72,1013.872,0,281.719416411,-7.799,284.9887,14.7,14.3424166667,1.80078
2019-02-01T21:37:32Z,13.50873,-7.697014,0.001449697,63.04347,0,1156,13.0928,-5.677723,17.836,43690,0.1014788,1015.673,7.248486e-06,15.72,1013.872,0,280.293837888,-7.595,284.6752,14.3276,14.2776142012,1.80078
2019-02-01T21:52:32Z,13.5198,-7.697014,0.0,62.22825,0,1156,16.4444,-5.657387,18.7768,43690,0.0,1015.673,0.0,15.84,1013.872,0,280.963799753,-7.629,279.8277,14.1414,14.2538666607,1.80078
2019-02-01T22:07:30Z,13.52533,-7.866852,0.0,62.8057,0,1156,14.7588,-5.722908,17.1696,43690,0.0,1016.244,0.0,17.17,1014.443,0,285.595689773,-7.697001,280.2136,13.769,13.7492833333,1.80078
2019-02-01T22:22:29Z,13.52533,-8.002722,0.0,60.73369,0,1156,12.4068,-5.677723,15.8368,43690,0.0,1016.244,0.0,13.58,1014.443,0,288.087310301,-7.867001,295.2384,12.3382,12.3549999702,1.80078
2019-02-01T22:37:29Z,13.52533,-7.730984,0.0,64.40217,0,1156,11.9168,-5.677723,15.778,43690,0.0,1016.244,0.0,13.09,1014.443,0,289.117081153,-7.663001,285.8811,12.0834,11.8508832917,1.80078
2019-02-01T22:52:33Z,13.52533,-7.832886,0.0,60.69972,0,1156,11.4856,-5.657387,19.2864,43690,0.0,1016.244,0.0,17.23,1014.443,0,285.888691285,-7.867001,286.6528,14.6804,14.5633798817,1.80078
2019-02-01T23:07:33Z,13.53639,-8.308428,0.0,57.03124,0,1156,11.5248,-5.939796,15.3076,43690,0.0,1016.325,0.0,15.31,1014.524,0,289.388363129,-8.24,276.2826,12.1716,12.050616625,1.80078
2019-02-01T23:22:31Z,13.54746,-8.5462,0.0,57.98233,0,1156,9.8,-6.224461,14.1708,43690,0.0,1016.325,0.0,14.05,1014.524,0,289.258798577,-8.34,303.7758,10.8388,10.8579332024,1.80078
2019-02-01T23:37:30Z,13.54797,-8.476978,0.0,57.5431,0,1156,10.0352,-6.466202,15.19,43690,0.0,1016.325,0.0,12.0,1014.524,0,289.363362959,-8.34,283.0227,10.7212,10.7123332619,1.80078
2019-02-01T23:52:29Z,13.54915,-8.133556,0.0,57.95752,0,1156,11.76,-6.599495,14.4452,43690,0.0,1016.325,0.0,13.62,1014.524,0,289.276106316,-8.07,288.869,10.8388,10.609083244,1.80078
2019-02-02T00:07:30Z,13.54903,-7.896664,0.0,60.77552,0,1156,9.2512,-6.642422,12.1324,43690,0.0,1017.379,0.0,11.64,1015.578,0,290.453139918,-7.931,298.8947,9.545199,9.45128317262,1.80078
2019-02-02T00:22:31Z,13.53866,-7.726784,0.0,59.34874,0,1156,10.094,-6.576904,13.9356,43690,0.0,1017.379,0.0,13.94,1015.578,0,289.276069925,-7.727,290.0428,10.6526,10.5787498869,1.80078
2019-02-02T00:37:31Z,13.52707,-7.760189,0.0,57.88898,0,1156,12.3284,-6.40068,14.6804,43690,0.0,1017.379,0.0,13.19,1015.578,0,289.794234692,-7.421001,285.3444,11.1132,10.9934999226,1.80078
2019-02-02T00:52:31Z,13.52642,-7.728985,0.0,55.30233,0,1156,12.6616,-6.247051,17.052,43690,0.0,1017.379,0.0,17.05,1015.578,0,289.796735164,-7.627,283.2699,12.397,12.2586332976,1.80078
2019-02-02T01:07:36Z,13.5254,-7.73053,0.0,58.22092,0,1156,12.8576,-6.204128,15.3664,43690,0.0,1017.397,0.0,14.15,1015.596,0,288.701631469,-7.561,286.9704,11.9364,11.858811787,1.80078
2019-02-02T01:22:36Z,13.5198,-7.968734,0.0,54.48372,0,1156,14.2296,-6.204128,16.9148,43690,0.0,1017.397,0.0,13.23,1015.596,0,290.458066291,-7.697001,288.6547,11.956,11.9859832976,1.80078
2019-02-02T01:37:34Z,13.51427,-7.697002,0.0,59.37502,0,1156,12.4068,-6.138607,15.6996,43690,0.0,1017.397,0.0,15.54,1015.596,0,287.901205305,-7.663001,278.212,12.5048,12.4081999821,1.80078
2019-02-02T01:52:34Z,13.50874,-7.629066,0.0,58.01632,0,1156,9.1924,-6.027904,17.5028,43690,0.0,1017.397,0.0,14.27,1015.596,0,288.072659566,-7.595,313.6879,12.2892,12.253616631,1.80078
2019-02-02T02:07:33Z,13.52533,-7.56113,0.0,56.7935,0,1156,13.3084,-6.005314,17.7184,43690,0.0,1016.651,0.0,16.44,1014.851,0,288.407420519,-7.527001,282.7701,13.5142,13.5753333214,1.80078
2019-02-02T02:22:37Z,13.51427,-7.798905,0.0,56.45382,0,1156,13.5436,-5.962387,16.8952,43690,0.0,1016.651,0.0,16.03,1014.851,0,289.880178688,-7.697001,287.087,13.2692,13.2165467337,1.80078
2019-02-02T02:37:37Z,13.50321,-7.798905,0.0,57.37094,0,1156,13.524,-6.005314,16.072,43690,0.0,1016.651,0.0,15.25,1014.851,0,289.922928329,-7.663001,282.0707,11.7894,11.8911333214,1.80078
2019-02-02T02:52:36Z,13.49767,-7.730969,0.0,60.73372,0,1156,11.8188,-5.984982,17.248,43690,0.0,1016.651,0.0,14.29,1014.851,0,285.557539775,-7.527001,271.5558,13.1418,13.1199833274,1.80078
2019-02-02T03:07:35Z,13.51427,-8.002706,0.0,60.46198,0,1156,12.7204,-6.027904,16.758,43690,0.0,1016.651,0.0,13.99,1014.851,0,289.393672756,-7.765,284.0483,11.3974,11.3508499345,1.80078
2019-02-02T03:22:38Z,13.5198,-8.240478,0.0,62.39812,0,1156,12.4264,-6.204128,14.798,43690,0.0,1016.651,0.0,13.64,1014.851,0,289.22777112,-8.04,280.7925,10.5056,10.5211407101,1.80078
2019-02-02T03:37:37Z,13.5198,-8.580113,0.0,58.66178,0,1156,11.8384,-6.335163,15.3076,43690,0.0,1016.651,0.0,15.31,1014.851,0,292.796035805,-8.38,274.4019,10.5448,10.4411999167,1.80078
2019-02-02T03:52:36Z,13.53226,-8.95163,0.0,57.85052,0,1156,10.7212,-6.511387,14.4452,43690,0.0,1016.651,0.0,11.31,1014.851,0,292.903995911,-8.92,285.0811,9.6824,9.35876654167,1.80078
2019-02-02T04:07:35Z,13.54888,-8.881399,0.0,61.89748,0,1156,5.4684,-6.775718,16.17,43690,0.0,1017.275,0.0,14.72,1015.474,0,290.329683105,-8.78,299.7672,9.7313995,9.83196653571,1.80078
2019-02-02T04:22:39Z,13.55024,-9.356606,0.0,60.81117,0,1156,6.174,-6.994866,13.2104,43690,0.0,1017.275,0.0,11.41,1015.474,0,293.355140457,-9.12,293.331,9.1728,9.12640930769,1.80078
2019-02-02T04:37:38Z,13.55748,-9.5896,0.0,59.97135,0,1156,13.7004,-7.21627,13.7004,43690,0.0,1017.275,0.0,11.52,1015.474,0,293.907368724,-9.66,280.5191,9.114,9.10793319643,1.80078
2019-02-02T04:52:36Z,13.55759,-10.06458,0.0,57.86608,0,1156,9.309999,-7.372158,15.484,43690,0.0,1017.275,0.0,9.66,1015.474,0,288.724910831,-9.83,310.2719,10.7506,9.88224994048,1.80078
2019-02-02T05:07:39Z,13.56866,-10.30242,0.0,56.67684,0,1156,7.016799,-7.616158,10.7212,43690,0.0,1018.294,0.0,7.232,1016.493,0,298.181362184,-10.37,293.0709,6.0564,6.02172299408,1.80078
2019-02-02T05:22:37Z,13.57972,-10.81211,0.0,53.82261,0,1156,6.0564,-7.927937,8.231999,43690,0.0,1018.294,0.0,7.918,1016.493,0,310.750935869,-10.71,327.4732,5.0764,5.03498330298,1.80078
2019-02-02T05:37:40Z,13.59079,-10.88007,0.0,55.75941,0,1156,6.174,-8.262306,8.878799,43690,0.0,1018.294,0.0,7.526001,1016.493,0,308.076832325,-10.91,327.2078,4.9196,4.93676447337,1.80078
2019-02-02T05:52:37Z,13.59125,-11.32064,0.0,51.3782,0,1156,4.7432,-8.553749,9.1532,43690,0.0,1018.294,0.0,6.252,1016.493,0,307.570521951,-11.25,321.1895,6.0074,5.92293327381,1.80078
2019-02-02T06:07:40Z,13.60397,-11.52106,0.0,53.15163,0,1156,4.1748,-8.82486,9.074799,43690,0.0,1017.54,0.0,6.723001,1015.739,0,306.535198866,-11.45,323.2312,4.3904,4.60124494083,1.80078
2019-02-02T06:22:38Z,13.616,-11.3156,0.0,51.86303,0,1156,7.7812,-9.118561,8.6044,43690,0.0,1017.54,0.0,7.252,1015.739,0,306.911476586,-11.32,291.9035,4.4688,4.66328330952,1.80078
2019-02-02T06:37:42Z,13.62289,-11.51672,0.0,51.49423,0,1156,4.4884,-9.299301,9.4276,43690,0.0,1017.54,0.0,6.586,1015.739,0,306.292827656,-11.48,331.3165,4.9196,4.87112186391,1.80078
2019-02-02T06:52:39Z,13.62309,-11.44803,0.0,52.44725,0,1156,2.352,-9.457447,9.2512,43690,0.0,1017.54,0.0,9.25,1015.739,0,311.729172391,-11.35,312.5492,5.1058,4.91994997024,1.80078